{"data":{"norad_id":64412,"intl_designator":"2025-129A","name":"STARLINK-34419","alt_names":[],"object_type":"PAYLOAD","status":"ACTIVE","operator":null,"country":"US","launch_date":"2025-06-17","launch_site_code":"AFWTR","launch_vehicle":null,"mission":null,"orbit_class":"UNKNOWN","rcs_meters":null,"size_class":null,"mass_kg":null,"dimensions":null,"purposes":["comms"],"wikipedia_slug":null,"has_3d_model":false,"image_url":null,"decayed_at":null,"tle_current":{"epoch":"2026-09-20T12:18:23.092128Z","epoch_age_seconds":133290,"freshness":"FRESH","line1":"1 64412U 25129A   26263.51276727  .00005316  00000+0  18918-3 0  9996","line2":"2 64412  70.0006 301.0885 0003638 270.1302  89.9456 15.29589142 70545","mean_motion":15.29589142,"eccentricity":0.0003638,"inclination_deg":70.0006,"raan_deg":301.0885,"arg_perigee_deg":270.1302,"mean_anomaly_deg":89.9456,"bstar":0.00018918,"rev_number":7054,"period_min":94.14292769607,"perigee_km":474.54567502884,"apogee_km":479.53350151446,"semimajor_km":6855.1765882717,"source":"CELESTRAK","updated_at":"2026-09-21T09:00:35.345499Z"}}}